SL-16 R/B, 24298

Orbit data source: Space-Track

SL-16 R/B, 24298 is space debris in LEO originally from a launch on Wed, 04 Sep 1996 UTC launched from the Tyuratam Missile And Space Complex (TTMTR). Debris objects in space refer to the collection of defunct objects orbiting the Earth. Examples of debris include non-operational satellites, rocket bodies, and fragments generated from explosions, collisions, or faulty payload assembly.

Loading next visibility...
Identifier
24298, 1996-051B
Orbit
LEO
Country
Flag of CISCIS
Related business
Manufacturer
Yuzhnoe
Mission
Spacecraft
Bus & Motor
11S772, Unknown motor
Mass
9,000 kg wet, 9,000 kg dry
Launch date (UTC)
1996-09-04 (29 years ago)
Launch vehicle
Unknown
Launch site
Tyuratam Missile And Space Complex (TTMTR)
Object type
Payload
Rocket body
Debris
Shape & HBR
Cyl, 5.2 m
Radar Cross Section
37.829 m², Large (>1 m²)

Expand to show TLE details & history
Last TLE update: 8 hours ago

TLE from 8 hours ago
0 SL-16 R/B
1 24298U 96051B   25353.92494254 -.00000037  00000-0  67056-5 0  9993
2 24298  70.7595 344.0747 0019472 252.5571 107.3420 14.12397350510388
Epoch: 2025-12-19T22:11Z
TLE epoch observation values (Epoch: 2025-12-19T22:11:55.035Z)
Latitude
-0.00002°
Longitude
-77.66373°
Altitude
857.783 km
Speed
7.422 km/s
True Right ascension
22h 56m 17s
True Declination
0° 00' 00"
Sunlit
Object was in daylight at epoch
Visualization orbit readout
Latitude
Unknown
Longitude
Unknown
Altitude
Unknown
Speed
Unknown
Apparent Right ascension
Unknown
Apparent Declination
Unknown
Sunlit
N/A
Visualization observer readout
Local Sidereal Time
05:22:27
Azimuth
Unknown
Elevation
Unknown
Doppler factor
Unknown
Orbital elements
Apogee altitude
863.204 km
Perigee altitude
835.058 km
Semi-major axis
7,227.268 km
Eccentricity
0.00195
Inclination
70.7595°
RAAN
344.0747°
Arg. of periapsis
252.5571°
True anomaly
107.55483°
Mean anomaly
107.342°
Eccentric anomaly
107.44843°
Mean motion
3.5325 °/min
Orbital period
101.91 mins
BSTAR
0.0000067056
Loading maneuver chart data...
Computing Atmospheric mass density...
Loading historical data...
Loading historical data...
Loading historical data...
Loading historical data...
Loading historical data...
Loading historical data...
Loading historical data...

Documentation

Showing up to 5 results
|